| time (UTC) | temp F | wind direction | speed MPH | gust MPH | rain 1hr in | rain 24hr in | rain mn in | humidity % | barometer mb |
| 20260506102005 | 55 | 357 | 2.0 | 2.0 | 0.00 | 0.00 | 0.00 | 76 | 1012.7 |
| 20260506101501 | 55 | 308 | 1.0 | 2.0 | 0.00 | 0.00 | 0.00 | 76 | 1012.7 |
| 20260506100959 | 56 | 327 | 1.0 | 1.0 | 0.00 | 0.00 | 0.00 | 76 | 1012.5 |
| 20260506100457 | 56 | 319 | 0.0 | 1.0 | 0.00 | 0.00 | 0.00 | 77 | 1012.8 |
| 20260506095954 | 56 | 334 | 1.0 | 1.0 | 0.00 | 0.00 | 0.00 | 76 | 1012.2 |
| 20260506095453 | 56 | 318 | 2.0 | 3.0 | 0.00 | 0.00 | 0.00 | 77 | 1012.2 |
| 20260506094948 | 56 | 326 | 0.0 | 0.0 | 0.00 | 0.00 | 0.00 | 77 | 1012.3 |
| 20260506094447 | 56 | 311 | 2.0 | 3.0 | 0.00 | 0.00 | 0.00 | 77 | 1012.2 |
| 20260506093944 | 56 | 15 | 2.0 | 5.0 | 0.00 | 0.00 | 0.00 | 76 | 1012.3 |
| 20260506093443 | 56 | 346 | 2.0 | 2.0 | 0.00 | 0.00 | 0.00 | 77 | 1012.1 |
| 20260506092940 | 56 | 341 | 1.0 | 1.0 | 0.00 | 0.00 | 0.00 | 76 | 1011.9 |
| 20260506092437 | 56 | 358 | 1.0 | 2.0 | 0.00 | 0.00 | 0.00 | 77 | 1011.7 |
| 20260506091934 | 56 | 333 | 1.0 | 2.0 | 0.00 | 0.00 | 0.00 | 76 | 1011.8 |
| 20260506091432 | 56 | 320 | 3.0 | 5.0 | 0.00 | 0.00 | 0.00 | 76 | 1011.7 |
| 20260506090929 | 56 | 359 | 0.0 | 1.0 | 0.00 | 0.00 | 0.00 | 76 | 1011.7 |
| 20260506090427 | 56 | 1 | 0.0 | 0.0 | 0.00 | 0.00 | 0.00 | 77 | 1011.8 |
| 20260506085923 | 56 | 334 | 3.0 | 3.0 | 0.00 | 0.00 | 0.00 | 76 | 1011.8 |
| 20260506085420 | 57 | 327 | 1.0 | 2.0 | 0.00 | 0.00 | 0.00 | 77 | 1011.7 |
| 20260506084916 | 57 | 349 | 1.0 | 1.0 | 0.00 | 0.00 | 0.00 | 77 | 1011.5 |
| 20260506084414 | 57 | 321 | 0.0 | 1.0 | 0.00 | 0.00 | 0.00 | 77 | 1011.6 |
| 20260506083909 | 57 | 354 | 0.0 | 1.0 | 0.00 | 0.00 | 0.00 | 77 | 1011.3 |
| 20260506083407 | 57 | 342 | 1.0 | 2.0 | 0.00 | 0.00 | 0.00 | 77 | 1011.4 |
| 20260506082904 | 57 | 329 | 0.0 | 0.0 | 0.00 | 0.00 | 0.00 | 77 | 1011.4 |
| 20260506082401 | 57 | 327 | 0.0 | 1.0 | 0.00 | 0.00 | 0.00 | 77 | 1011.3 |
| 20260506081857 | 57 | 359 | 1.0 | 2.0 | 0.00 | 0.00 | 0.00 | 77 | 1011.3 |
| 20260506081355 | 57 | 313 | 2.0 | 2.0 | 0.00 | 0.00 | 0.00 | 77 | 1011.6 |
| 20260506080852 | 57 | 329 | 0.0 | 1.0 | 0.00 | 0.00 | 0.00 | 77 | 1011.5 |
| 20260506080349 | 57 | 20 | 1.0 | 2.0 | 0.00 | 0.00 | 0.00 | 77 | 1011.5 |
| 20260506073333 | 58 | 303 | 1.0 | 1.0 | 0.00 | 0.00 | 0.00 | 78 | 1010.9 |
| 20260506072830 | 58 | 339 | 1.0 | 2.0 | 0.00 | 0.00 | 0.00 | 79 | 1010.7 |
| 20260506072327 | 57 | 319 | 1.0 | 1.0 | 0.00 | 0.00 | 0.00 | 79 | 1010.7 |
| 20260506071825 | 57 | 337 | 2.0 | 2.0 | 0.00 | 0.00 | 0.00 | 78 | 1010.6 |
| 20260506071323 | 58 | 334 | 1.0 | 1.0 | 0.00 | 0.00 | 0.00 | 78 | 1010.6 |
| 20260506070820 | 58 | 354 | 2.0 | 3.0 | 0.00 | 0.00 | 0.00 | 78 | 1010.6 |
| 20260506070317 | 58 | 330 | 1.0 | 2.0 | 0.00 | 0.00 | 0.00 | 78 | 1010.7 |
| 20260506062254 | 58 | 352 | 1.0 | 2.0 | 0.00 | 0.00 | 0.00 | 78 | 1010.7 |
| 20260506061749 | 59 | 359 | 2.0 | 3.0 | 0.00 | 0.00 | 0.00 | 78 | 1011.3 |
| 20260506061247 | 59 | 354 | 1.0 | 1.0 | 0.00 | 0.00 | 0.00 | 79 | 1011.2 |
| 20260506060745 | 59 | 337 | 1.0 | 1.0 | 0.00 | 0.00 | 0.00 | 79 | 1010.9 |
| 20260506060243 | 59 | 346 | 1.0 | 1.0 | 0.00 | 0.00 | 0.00 | 79 | 1011.1 |
| 20260506051214 | 59 | 308 | 1.0 | 1.0 | 0.00 | 0.00 | 0.00 | 79 | 1011.2 |
| 20260506050713 | 59 | 338 | 2.0 | 2.0 | 0.00 | 0.00 | 0.00 | 79 | 1011.3 |
| 20260506050209 | 60 | 0 | 1.0 | 2.0 | 0.00 | 0.00 | 0.00 | 79 | 1011.2 |
| 20260506044700 | 60 | 328 | 0.0 | 1.0 | 0.00 | 0.00 | 0.00 | 81 | 1011.2 |
| 20260506044157 | 60 | 344 | 2.0 | 2.0 | 0.00 | 0.00 | 0.00 | 81 | 1011.2 |
| 20260506043654 | 60 | 339 | 2.0 | 2.0 | 0.00 | 0.00 | 0.00 | 81 | 1011.1 |
| 20260506043152 | 60 | 335 | 1.0 | 1.0 | 0.00 | 0.00 | 0.00 | 81 | 1011.3 |
| 20260506042651 | 60 | 349 | 1.0 | 2.0 | 0.00 | 0.00 | 0.00 | 81 | 1011.2 |
| 20260506042149 | 60 | 298 | 2.0 | 2.0 | 0.00 | 0.00 | 0.00 | 81 | 1011.0 |
| 20260506041647 | 61 | 327 | 1.0 | 1.0 | 0.00 | 0.00 | 0.00 | 80 | 1010.9 |
| 20260506041143 | 61 | 330 | 3.0 | 3.0 | 0.00 | 0.00 | 0.00 | 81 | 1011.1 |
| 20260506040641 | 61 | 293 | 1.0 | 2.0 | 0.00 | 0.00 | 0.00 | 80 | 1011.0 |
| 20260506040138 | 61 | 317 | 1.0 | 2.0 | 0.00 | 0.00 | 0.00 | 80 | 1011.0 |
| 20260506035635 | 61 | 323 | 1.0 | 1.0 | 0.00 | 0.00 | 0.00 | 80 | 1010.7 |
| 20260506035131 | 62 | 336 | 5.0 | 10.0 | 0.00 | 0.00 | 0.00 | 80 | 1010.6 |
| 20260506034629 | 62 | 358 | 1.0 | 1.0 | 0.00 | 0.00 | 0.00 | 80 | 1010.4 |
| 20260506034125 | 62 | 330 | 3.0 | 3.0 | 0.00 | 0.00 | 0.00 | 80 | 1010.5 |
| 20260506033623 | 62 | 14 | 3.0 | 3.0 | 0.00 | 0.00 | 0.00 | 80 | 1010.5 |
| 20260506033120 | 62 | 353 | 2.0 | 2.0 | 0.00 | 0.00 | 0.00 | 80 | 1010.2 |
| 20260506032617 | 62 | 344 | 0.0 | 1.0 | 0.00 | 0.00 | 0.00 | 80 | 1010.4 |
| 20260506032114 | 63 | 302 | 1.0 | 1.0 | 0.00 | 0.00 | 0.00 | 80 | 1010.2 |
| 20260506031611 | 63 | 305 | 2.0 | 3.0 | 0.00 | 0.00 | 0.00 | 80 | 1010.3 |
| 20260506031108 | 63 | 282 | 1.0 | 1.0 | 0.00 | 0.00 | 0.00 | 80 | 1010.0 |
| 20260506030606 | 63 | 4 | 2.0 | 3.0 | 0.00 | 0.00 | 0.00 | 79 | 1010.1 |
| 20260506030103 | 64 | 0 | 1.0 | 1.0 | 0.00 | 0.00 | 0.00 | 79 | 1010.1 |
| 20260506025600 | 64 | 290 | 4.0 | 7.0 | 0.00 | 0.00 | 0.00 | 79 | 1009.9 |
| 20260506025056 | 64 | 294 | 1.0 | 1.0 | 0.00 | 0.00 | 0.00 | 79 | 1009.7 |
| 20260506024553 | 64 | 346 | 2.0 | 2.0 | 0.00 | 0.00 | 0.00 | 79 | 1009.7 |
| 20260506024050 | 64 | 236 | 1.0 | 2.0 | 0.00 | 0.00 | 0.00 | 79 | 1009.8 |
| 20260506023545 | 65 | 304 | 1.0 | 2.0 | 0.00 | 0.00 | 0.00 | 79 | 1009.4 |
| 20260506023043 | 65 | 349 | 2.0 | 2.0 | 0.00 | 0.00 | 0.00 | 79 | 1009.3 |
| 20260506022541 | 65 | 19 | 1.0 | 1.0 | 0.00 | 0.00 | 0.00 | 79 | 1009.3 |
| 20260506022038 | 65 | 309 | 2.0 | 2.0 | 0.00 | 0.00 | 0.00 | 79 | 1009.2 |
| 20260506021535 | 65 | 352 | 2.0 | 2.0 | 0.00 | 0.00 | 0.00 | 78 | 1008.8 |
| 20260506021033 | 66 | 337 | 0.0 | 1.0 | 0.00 | 0.00 | 0.00 | 78 | 1008.6 |
| 20260506020530 | 66 | 243 | 1.0 | 1.0 | 0.00 | 0.00 | 0.00 | 78 | 1008.6 |
| 20260506020027 | 66 | 351 | 0.0 | 1.0 | 0.00 | 0.00 | 0.00 | 78 | 1008.4 |
| 20260506015525 | 67 | 71 | 2.0 | 3.0 | 0.00 | 0.00 | 0.00 | 78 | 1008.4 |
| 20260506015021 | 67 | 339 | 1.0 | 2.0 | 0.00 | 0.00 | 0.00 | 78 | 1008.4 |
| 20260506014519 | 67 | 301 | 0.0 | 1.0 | 0.00 | 0.00 | 0.00 | 77 | 1008.3 |
| 20260506014015 | 68 | 318 | 1.0 | 1.0 | 0.00 | 0.00 | 0.00 | 77 | 1008.2 |
| 20260506013513 | 68 | 22 | 2.0 | 3.0 | 0.00 | 0.00 | 0.00 | 76 | 1007.9 |
| 20260506013009 | 68 | 346 | 0.0 | 1.0 | 0.00 | 0.00 | 0.00 | 76 | 1007.8 |
| 20260506012505 | 68 | 334 | 0.0 | 0.0 | 0.00 | 0.00 | 0.00 | 75 | 1007.7 |
| 20260506012003 | 68 | 8 | 1.0 | 1.0 | 0.00 | 0.00 | 0.00 | 75 | 1007.5 |
| 20260506011500 | 68 | 322 | 1.0 | 1.0 | 0.00 | 0.00 | 0.00 | 74 | 1007.7 |
| 20260506010956 | 68 | 17 | 1.0 | 1.0 | 0.00 | 0.00 | 0.00 | 74 | 1007.8 |
| 20260506010456 | 68 | 359 | 0.0 | 0.0 | 0.00 | 0.00 | 0.00 | 74 | 1007.2 |
| 20260506005951 | 68 | 357 | 1.0 | 1.0 | 0.00 | 0.00 | 0.00 | 73 | 1006.8 |
| 20260506005449 | 68 | 9 | 0.0 | 0.0 | 0.00 | 0.00 | 0.00 | 73 | 1007.0 |
| 20260506004944 | 69 | 295 | 1.0 | 1.0 | 0.00 | 0.00 | 0.00 | 73 | 1007.0 |
| 20260506004442 | 69 | 298 | 2.0 | 2.0 | 0.00 | 0.00 | 0.00 | 73 | 1007.0 |
| 20260506003938 | 69 | 337 | 0.0 | 1.0 | 0.00 | 0.00 | 0.00 | 73 | 1006.9 |
| 20260506003435 | 70 | 344 | 1.0 | 1.0 | 0.00 | 0.00 | 0.00 | 72 | 1006.5 |
| 20260506002931 | 70 | 1 | 1.0 | 1.0 | 0.00 | 0.00 | 0.00 | 72 | 1006.9 |
| 20260506002427 | 71 | 322 | 2.0 | 2.0 | 0.00 | 0.00 | 0.00 | 72 | 1006.5 |
| 20260506001923 | 71 | 346 | 2.0 | 3.0 | 0.00 | 0.00 | 0.00 | 71 | 1006.4 |
| 20260506001420 | 71 | 354 | 1.0 | 1.0 | 0.00 | 0.00 | 0.00 | 71 | 1006.4 |
| 20260506000917 | 72 | 344 | 2.0 | 2.0 | 0.00 | 0.00 | 0.00 | 70 | 1006.6 |
| 20260506000416 | 72 | 23 | 2.0 | 3.0 | 0.00 | 0.00 | 0.00 | 70 | 1006.8 |
| 20260505235911 | 72 | 327 | 2.0 | 3.0 | 0.00 | 0.00 | 0.00 | 70 | 1006.5 |
| 20260505235410 | 73 | 9 | 2.0 | 2.0 | 0.00 | 0.00 | 0.00 | 70 | 1006.4 |
| 20260505234906 | 73 | 343 | 0.0 | 1.0 | 0.00 | 0.00 | 0.00 | 69 | 1006.3 |
| 20260505234404 | 74 | 331 | 2.0 | 2.0 | 0.00 | 0.00 | 0.00 | 69 | 1006.5 |
| 20260505233900 | 74 | 341 | 3.0 | 5.0 | 0.00 | 0.00 | 0.00 | 68 | 1006.6 |
| 20260505233358 | 74 | 312 | 4.0 | 5.0 | 0.00 | 0.00 | 0.00 | 67 | 1006.6 |
| 20260505232855 | 75 | 325 | 2.0 | 2.0 | 0.00 | 0.00 | 0.00 | 69 | 1006.5 |
| 20260505232353 | 75 | 334 | 1.0 | 1.0 | 0.00 | 0.00 | 0.00 | 68 | 1006.3 |
| 20260505231849 | 76 | 311 | 4.0 | 6.0 | 0.00 | 0.00 | 0.00 | 67 | 1006.1 |
| 20260505231347 | 76 | 36 | 2.0 | 2.0 | 0.00 | 0.00 | 0.00 | 67 | 1006.2 |
| 20260505230845 | 77 | 329 | 3.0 | 5.0 | 0.00 | 0.00 | 0.00 | 67 | 1006.1 |
| 20260505230342 | 77 | 13 | 1.0 | 1.0 | 0.00 | 0.00 | 0.00 | 66 | 1006.0 |
| 20260505225839 | 78 | 328 | 1.0 | 1.0 | 0.00 | 0.00 | 0.00 | 66 | 1006.3 |
| 20260505225336 | 79 | 43 | 4.0 | 6.0 | 0.00 | 0.00 | 0.00 | 64 | 1006.2 |
| 20260505224831 | 79 | 346 | 5.0 | 6.0 | 0.00 | 0.00 | 0.00 | 65 | 1005.8 |
| 20260505224329 | 80 | 315 | 2.0 | 3.0 | 0.00 | 0.00 | 0.00 | 65 | 1005.9 |
| 20260505223826 | 81 | 339 | 1.0 | 1.0 | 0.00 | 0.00 | 0.00 | 64 | 1005.5 |
| 20260505223323 | 81 | 334 | 1.0 | 1.0 | 0.00 | 0.00 | 0.00 | 63 | 1005.2 |
| 20260505222818 | 82 | 330 | 1.0 | 1.0 | 0.00 | 0.00 | 0.00 | 62 | 1005.5 |
| 20260505222315 | 83 | 280 | 5.0 | 8.0 | 0.00 | 0.00 | 0.00 | 60 | 1005.3 |
| 20260505221813 | 83 | 332 | 1.0 | 1.0 | 0.00 | 0.00 | 0.00 | 61 | 1005.0 |
| 20260505221309 | 84 | 351 | 0.0 | 0.0 | 0.00 | 0.00 | 0.00 | 60 | 1005.0 |
| 20260505220806 | 85 | 328 | 4.0 | 6.0 | 0.00 | 0.00 | 0.00 | 56 | 1005.2 |
| 20260505220303 | 87 | 81 | 0.0 | 1.0 | 0.00 | 0.00 | 0.00 | 54 | 1005.0 |
| 20260505215801 | 87 | 320 | 1.0 | 1.0 | 0.00 | 0.00 | 0.00 | 54 | 1004.9 |
| 20260505215259 | 86 | 333 | 1.0 | 1.0 | 0.00 | 0.00 | 0.00 | 56 | 1004.7 |
| 20260505214756 | 85 | 302 | 1.0 | 2.0 | 0.00 | 0.00 | 0.00 | 57 | 1004.9 |
| 20260505214253 | 85 | 341 | 2.0 | 3.0 | 0.00 | 0.00 | 0.00 | 55 | 1004.9 |
| 20260505213750 | 86 | 340 | 2.0 | 3.0 | 0.00 | 0.00 | 0.00 | 54 | 1005.0 |
| 20260505213248 | 88 | 317 | 1.0 | 1.0 | 0.00 | 0.00 | 0.00 | 51 | 1005.0 |
| 20260505212743 | 89 | 350 | 1.0 | 2.0 | 0.00 | 0.00 | 0.00 | 49 | 1004.8 |
| 20260505212241 | 89 | 280 | 2.0 | 3.0 | 0.00 | 0.00 | 0.00 | 47 | 1004.8 |
| 20260505211738 | 88 | 340 | 2.0 | 2.0 | 0.00 | 0.00 | 0.00 | 47 | 1005.0 |
| 20260505211235 | 88 | 321 | 1.0 | 1.0 | 0.00 | 0.00 | 0.00 | 46 | 1004.9 |
| 20260505210731 | 89 | 317 | 2.0 | 3.0 | 0.00 | 0.00 | 0.00 | 45 | 1005.0 |
| 20260505210228 | 89 | 317 | 2.0 | 2.0 | 0.00 | 0.00 | 0.00 | 45 | 1005.1 |
| 20260505205726 | 88 | 186 | 2.0 | 3.0 | 0.00 | 0.00 | 0.00 | 49 | 1005.0 |
| 20260505205224 | 88 | 320 | 1.0 | 1.0 | 0.00 | 0.00 | 0.00 | 51 | 1005.0 |
| 20260505204720 | 89 | 328 | 2.0 | 2.0 | 0.00 | 0.00 | 0.00 | 46 | 1005.2 |
| 20260505204218 | 90 | 329 | 0.0 | 1.0 | 0.00 | 0.00 | 0.00 | 48 | 1005.2 |
| 20260505203715 | 90 | 242 | 2.0 | 5.0 | 0.00 | 0.00 | 0.00 | 50 | 1005.0 |
| 20260505203212 | 90 | 18 | 1.0 | 1.0 | 0.00 | 0.00 | 0.00 | 50 | 1005.1 |
| 20260505202707 | 90 | 216 | 1.0 | 3.0 | 0.00 | 0.00 | 0.00 | 54 | 1005.0 |
| 20260505202204 | 89 | 1 | 1.0 | 2.0 | 0.00 | 0.00 | 0.00 | 54 | 1005.1 |
| 20260505201700 | 88 | 151 | 3.0 | 3.0 | 0.00 | 0.00 | 0.00 | 55 | 1005.0 |
| 20260505201158 | 87 | 141 | 1.0 | 2.0 | 0.00 | 0.00 | 0.00 | 61 | 1005.2 |
| 20260505200656 | 87 | 246 | 3.0 | 3.0 | 0.00 | 0.00 | 0.00 | 60 | 1005.4 |
| 20260505200153 | 87 | 198 | 2.0 | 3.0 | 0.00 | 0.00 | 0.00 | 59 | 1005.3 |
| 20260505195649 | 87 | 321 | 3.0 | 5.0 | 0.00 | 0.00 | 0.00 | 61 | 1005.3 |
| 20260505195146 | 88 | 143 | 1.0 | 2.0 | 0.00 | 0.00 | 0.00 | 60 | 1005.2 |
| 20260505194643 | 88 | 144 | 2.0 | 3.0 | 0.00 | 0.00 | 0.00 | 61 | 1005.2 |
| 20260505194139 | 87 | 216 | 2.0 | 2.0 | 0.00 | 0.00 | 0.00 | 62 | 1005.3 |
| 20260505193636 | 86 | 184 | 3.0 | 3.0 | 0.00 | 0.00 | 0.00 | 62 | 1005.3 |
| 20260505193133 | 86 | 251 | 1.0 | 1.0 | 0.00 | 0.00 | 0.00 | 64 | 1005.5 |
| 20260505192632 | 86 | 157 | 3.0 | 5.0 | 0.00 | 0.00 | 0.00 | 63 | 1005.4 |
| 20260505192129 | 87 | 316 | 1.0 | 1.0 | 0.00 | 0.00 | 0.00 | 65 | 1005.2 |
| 20260505191627 | 87 | 311 | 2.0 | 2.0 | 0.00 | 0.00 | 0.00 | 62 | 1005.3 |
| 20260505191125 | 87 | 155 | 4.0 | 6.0 | 0.00 | 0.00 | 0.00 | 65 | 1005.1 |
| 20260505190620 | 86 | 157 | 3.0 | 6.0 | 0.00 | 0.00 | 0.00 | 64 | 1005.3 |
| 20260505190115 | 85 | 35 | 5.0 | 7.0 | 0.00 | 0.00 | 0.00 | 65 | 1005.1 |
| 20260505185613 | 84 | 115 | 4.0 | 5.0 | 0.00 | 0.00 | 0.00 | 66 | 1005.0 |
| 20260505185109 | 84 | 138 | 5.0 | 7.0 | 0.00 | 0.00 | 0.00 | 66 | 1005.2 |
| 20260505184605 | 84 | 180 | 5.0 | 6.0 | 0.00 | 0.00 | 0.00 | 65 | 1005.1 |
| 20260505184102 | 84 | 184 | 7.0 | 8.0 | 0.00 | 0.00 | 0.00 | 66 | 1005.1 |
| 20260505183559 | 84 | 166 | 8.0 | 10.0 | 0.00 | 0.00 | 0.00 | 66 | 1005.3 |
| 20260505183057 | 85 | 212 | 3.0 | 5.0 | 0.00 | 0.00 | 0.00 | 64 | 1005.5 |
| 20260505182553 | 85 | 194 | 2.0 | 2.0 | 0.00 | 0.00 | 0.00 | 66 | 1005.4 |
| 20260505182050 | 85 | 188 | 3.0 | 3.0 | 0.00 | 0.00 | 0.00 | 66 | 1005.3 |
| 20260505181546 | 84 | 76 | 5.0 | 7.0 | 0.00 | 0.00 | 0.00 | 65 | 1005.2 |
| 20260505181044 | 84 | 298 | 4.0 | 5.0 | 0.00 | 0.00 | 0.00 | 66 | 1005.4 |
| 20260505180539 | 83 | 194 | 2.0 | 3.0 | 0.00 | 0.00 | 0.00 | 67 | 1005.4 |
| 20260505180038 | 83 | 157 | 4.0 | 9.0 | 0.00 | 0.00 | 0.00 | 66 | 1005.6 |
| 20260505175537 | 84 | 167 | 9.0 | 15.0 | 0.00 | 0.00 | 0.00 | 66 | 1005.3 |
| 20260505175035 | 84 | 197 | 5.0 | 8.0 | 0.00 | 0.00 | 0.00 | 66 | 1005.4 |
| 20260505174531 | 83 | 141 | 2.0 | 3.0 | 0.00 | 0.00 | 0.00 | 70 | 1005.4 |
| 20260505174027 | 83 | 257 | 5.0 | 7.0 | 0.00 | 0.00 | 0.00 | 70 | 1005.4 |
| 20260505173524 | 82 | 154 | 4.0 | 6.0 | 0.00 | 0.00 | 0.00 | 70 | 1005.5 |
| 20260505173021 | 81 | 161 | 2.0 | 2.0 | 0.00 | 0.00 | 0.00 | 71 | 1005.4 |
| 20260505172519 | 81 | 287 | 1.0 | 2.0 | 0.00 | 0.00 | 0.00 | 72 | 1005.5 |
| 20260505172015 | 80 | 314 | 3.0 | 5.0 | 0.00 | 0.00 | 0.00 | 72 | 1005.3 |
| 20260505171510 | 80 | 173 | 10.0 | 14.0 | 0.00 | 0.00 | 0.00 | 71 | 1005.4 |
| 20260505171008 | 80 | 128 | 2.0 | 3.0 | 0.00 | 0.00 | 0.00 | 73 | 1005.3 |
| 20260505170504 | 80 | 199 | 5.0 | 7.0 | 0.00 | 0.00 | 0.00 | 73 | 1005.3 |
| 20260505170000 | 79 | 167 | 7.0 | 9.0 | 0.00 | 0.00 | 0.00 | 75 | 1005.3 |
| 20260505165456 | 79 | 198 | 7.0 | 8.0 | 0.00 | 0.00 | 0.00 | 76 | 1005.2 |
| 20260505164951 | 78 | 169 | 4.0 | 5.0 | 0.00 | 0.00 | 0.00 | 76 | 1005.4 |
| 20260505164448 | 78 | 224 | 6.0 | 7.0 | 0.00 | 0.00 | 0.00 | 76 | 1005.4 |
| 20260505163946 | 78 | 199 | 5.0 | 10.0 | 0.00 | 0.00 | 0.00 | 76 | 1005.4 |
| 20260505163445 | 78 | 260 | 5.0 | 7.0 | 0.00 | 0.00 | 0.00 | 76 | 1005.4 |
| 20260505162944 | 78 | 198 | 2.0 | 2.0 | 0.00 | 0.00 | 0.00 | 76 | 1005.3 |
| 20260505162439 | 77 | 206 | 5.0 | 8.0 | 0.00 | 0.00 | 0.00 | 76 | 1005.3 |
| 20260505161936 | 77 | 190 | 5.0 | 6.0 | 0.00 | 0.00 | 0.00 | 77 | 1005.2 |
| 20260505161432 | 77 | 143 | 5.0 | 7.0 | 0.00 | 0.00 | 0.00 | 77 | 1005.1 |
| 20260505160930 | 77 | 168 | 5.0 | 7.0 | 0.00 | 0.00 | 0.00 | 77 | 1005.3 |
| 20260505160428 | 77 | 210 | 5.0 | 8.0 | 0.00 | 0.00 | 0.00 | 77 | 1005.1 |
| 20260505152905 | 77 | 113 | 5.0 | 7.0 | 0.00 | 0.00 | 0.00 | 77 | 1005.0 |
| 20260505152403 | 77 | 184 | 9.0 | 14.0 | 0.00 | 0.00 | 0.00 | 76 | 1005.1 |
| 20260505151901 | 76 | 164 | 8.0 | 11.0 | 0.00 | 0.00 | 0.00 | 78 | 1004.7 |
| 20260505151358 | 76 | 161 | 5.0 | 8.0 | 0.00 | 0.00 | 0.00 | 78 | 1004.9 |
| 20260505150856 | 75 | 145 | 6.0 | 7.0 | 0.00 | 0.00 | 0.00 | 79 | 1005.0 |
| 20260505150353 | 75 | 170 | 5.0 | 8.0 | 0.00 | 0.00 | 0.00 | 80 | 1005.2 |
| 20260505140322 | 74 | 140 | 4.0 | 6.0 | 0.00 | 0.00 | 0.00 | 83 | 1004.7 |
| 20260505130246 | 71 | 169 | 4.0 | 6.0 | 0.00 | 0.00 | 0.00 | 86 | 1004.6 |
| 20260505124736 | 71 | 127 | 9.0 | 11.0 | 0.00 | 0.00 | 0.00 | 86 | 1004.5 |
| 20260505124233 | 71 | 157 | 6.0 | 7.0 | 0.00 | 0.00 | 0.00 | 87 | 1004.4 |
| 20260505123729 | 71 | 294 | 4.0 | 7.0 | 0.00 | 0.00 | 0.00 | 87 | 1004.4 |
| 20260505123226 | 71 | 194 | 5.0 | 7.0 | 0.00 | 0.00 | 0.00 | 87 | 1004.1 |
| 20260505122722 | 71 | 144 | 5.0 | 8.0 | 0.00 | 0.00 | 0.00 | 87 | 1004.0 |
| 20260505122220 | 71 | 152 | 4.0 | 6.0 | 0.00 | 0.00 | 0.00 | 86 | 1004.0 |
| 20260505121716 | 71 | 164 | 7.0 | 11.0 | 0.00 | 0.00 | 0.00 | 87 | 1004.0 |
| 20260505121213 | 71 | 222 | 6.0 | 8.0 | 0.00 | 0.00 | 0.00 | 87 | 1003.8 |
| 20260505120709 | 71 | 105 | 3.0 | 5.0 | 0.00 | 0.00 | 0.00 | 87 | 1004.0 |
| 20260505120205 | 71 | 263 | 5.0 | 8.0 | 0.00 | 0.00 | 0.00 | 87 | 1003.9 |
| 20260505115659 | 71 | 210 | 6.0 | 8.0 | 0.00 | 0.00 | 0.00 | 87 | 1004.1 |
| 20260505115157 | 71 | 153 | 4.0 | 8.0 | 0.00 | 0.00 | 0.00 | 87 | 1004.0 |
| 20260505114654 | 70 | 161 | 6.0 | 9.0 | 0.00 | 0.00 | 0.00 | 87 | 1003.8 |
| 20260505114150 | 71 | 182 | 3.0 | 3.0 | 0.00 | 0.00 | 0.00 | 87 | 1004.0 |
| 20260505113646 | 70 | 142 | 3.0 | 5.0 | 0.00 | 0.00 | 0.00 | 87 | 1003.7 |
| 20260505113143 | 70 | 184 | 6.0 | 9.0 | 0.00 | 0.00 | 0.00 | 87 | 1003.8 |
| 20260505112640 | 70 | 206 | 3.0 | 3.0 | 0.00 | 0.00 | 0.00 | 87 | 1003.7 |
| 20260505112138 | 70 | 194 | 6.0 | 7.0 | 0.00 | 0.00 | 0.00 | 87 | 1003.7 |
| 20260505111637 | 70 | 182 | 4.0 | 6.0 | 0.00 | 0.00 | 0.00 | 87 | 1003.8 |
| 20260505111133 | 70 | 300 | 3.0 | 3.0 | 0.00 | 0.00 | 0.00 | 87 | 1003.6 |
| 20260505110629 | 70 | 186 | 7.0 | 11.0 | 0.00 | 0.00 | 0.00 | 87 | 1003.7 |
| 20260505110127 | 70 | 151 | 3.0 | 7.0 | 0.00 | 0.00 | 0.00 | 87 | 1003.7 |